Startseite
Über Mich
AHP4
Galerie
Sehschlangen
Tourenbuch
Bookmarks
Elektronik
Bewertung
Geschichten
[Tagesmessung] [Jahreswerte] [Information]

Messwerte vom 02.06.2022

Die letzten Messwerte von 23:58:48 Uhr:
KategorieMesswert
Temperatur [°C]8
Luftdruck [mBar]1006
Sonneneinstrahlung0
Wind [km/h]0 aus Nord
Niederschlag [l/m²]0
rel.Luftfeucht.92.6%
CO2 [ppm]586

Diagramme
Messwerte vom 02.06.2022
Tagesaggregation
KategorieMinimumMaximumSchnittSumme
Temperatur [°C]62813.8125
Luftdruck [mBar]100010061004.5708
Sonneneinstrahlung247142.8167
Wind [km/h]8
rF [%]3196.676.3
Niederschlag [l/m²]0
CO2 [ppm]525842701.3
Einordnung alsVegetationstag
Sommertag

Messungen an benachbarten Tagen: Zur Jahresaggregation 2022
Tabelle aller Messwerte
UhrzeitTemperatur [°C]Luftdruck [mBar]SonneWind [km/h]RichtungRegen [l/m²]rF [%]CO2 [ppm]
00:01:46 8 1001 0 0 S 0 96.6 725
00:04:45 8 1001 0 0 O 0 96.6 732
00:07:45 8 1000 0 0 O 0 96.6 737
00:10:47 8 1002 0 0 W 0 96.6 726
00:13:47 8 1001 0 0 SO 0 96.6 700
00:16:48 8 1001 0 0 SO 0 96.6 706
00:19:48 8 1001 0 0 O 0 96.6 723
00:22:47 8 1001 0 0 O 0 96.6 695
00:25:46 8 1001 0 0 O 0 96.6 651
00:28:50 8 1001 0 0 S 0 96.6 636
00:31:49 8 1001 0 1 SW 0 96.6 638
00:34:46 8 1001 0 0 S 0 96.6 636
00:37:48 8 1001 0 1 S 0 96.6 637
00:40:46 8 1001 0 0 S 0 96.6 644
00:43:47 8 1001 0 0 SW 0 96.6 653
00:46:46 8 1001 0 0 O 0 96.6 660
00:49:47 8 1001 0 0 SW 0 96.6 670
00:52:48 8 1001 0 0 SW 0 96.6 674
00:55:48 8 1001 0 0 SO 0 96.6 686
00:58:49 8 1002 0 0 W 0 96.6 687
01:01:49 8 1002 0 0 NW 0 96.6 686
01:04:47 8 1002 0 0 SO 0 96.6 685
01:07:47 8 1001 0 0 SW 0 96.6 686
01:10:48 8 1001 0 0 S 0 96.6 688
01:13:46 8 1001 0 0 NW 0 96.6 690
01:16:47 8 1002 0 2 SW 0 96.6 694
01:19:46 8 1002 0 0 S 0 96.6 700
01:22:49 8 1002 0 0 SW 0 96.6 702
01:25:48 8 1001 0 0 SO 0 96.6 704
01:28:47 8 1001 0 0 SO 0 96.6 703
01:31:46 7 1002 0 0 O 0 96.6 709
01:34:46 7 1002 0 0 O 0 96.6 724
01:37:47 7 1001 0 0 S 0 96.6 728
01:40:46 7 1001 0 0 S 0 96.6 731
01:43:45 7 1002 0 0 S 0 96.6 730
01:46:47 7 1001 0 0 S 0 96.6 728
01:49:46 7 1002 0 0 S 0 96.6 733
01:52:45 7 1002 0 0 S 0 96.6 737
01:55:45 7 1002 0 0 S 0 96.6 739
01:58:48 7 1002 0 0 S 0 96.6 743
02:01:45 7 1001 0 0 S 0 96.6 747
02:04:48 7 1001 0 0 SO 0 96.6 756
02:07:48 7 1001 0 0 SO 0 96.6 753
02:10:49 7 1000 0 0 SW 0 96.6 750
02:13:46 7 1002 0 0 S 0 96.6 745
02:16:47 7 1002 0 0 S 0 96.6 750
02:19:48 7 1001 0 0 S 0 96.6 755
02:22:47 7 1001 0 0 S 0 96.6 761
02:25:46 7 1002 0 0 S 0 96.6 762
02:28:49 7 1002 0 0 S 0 96.6 753
02:31:46 7 1001 0 0 S 0 96.6 764
02:34:48 7 1002 0 0 S 0 96.6 762
02:37:45 7 1002 0 0 W 0 96.6 771
02:40:46 7 1001 0 0 W 0 96.6 769
02:43:46 6 1002 0 0 W 0 96.6 774
02:46:46 6 1001 0 0 S 0 96.6 771
02:49:46 6 1002 0 0 W 0 96.6 768
02:52:46 6 1002 0 0 W 0 96.6 768
02:55:46 6 1002 0 0 S 0 96.6 765
02:58:46 6 1002 0 0 S 0 96.6 761
03:01:48 6 1002 0 0 SW 0 96.6 762
03:04:48 6 1002 0 0 SW 0 96.6 774
03:07:50 6 1002 0 0 SO 0 96.6 779
03:10:48 6 1001 0 0 SO 0 96.6 780
03:13:48 6 1002 0 0 SO 0 96.6 780
03:16:48 6 1002 0 0 S 0 96.6 779
03:19:46 6 1002 0 0 S 0 96.6 780
03:22:47 6 1002 0 0 SO 0 96.6 782
03:25:47 7 1002 0 0 S 0 96.6 785
03:28:47 7 1002 0 0 SO 0 96.6 785
03:31:48 7 1002 0 4 S 0 96.6 792
03:34:47 7 1002 0 0 S 0 96.6 797
03:37:46 7 1002 0 0 O 0 96.6 793
03:40:48 7 1002 0 0 O 0 96.6 791
03:43:46 7 1002 0 0 O 0 96.6 795
03:46:47 7 1002 0 0 O 0 96.6 787
03:49:48 7 1002 0 0 NW 0 96.6 790
03:52:45 7 1002 0 0 SW 0 96.6 793
03:55:48 7 1002 0 0 SO 0 96.6 803
03:58:48 7 1002 0 0 SO 0 96.6 811
04:01:46 7 1002 0 0 S 0 96.6 806
04:04:48 7 1002 0 0 NW 0 96.6 800
04:07:50 7 1002 0 0 SO 0 96.6 800
04:10:47 7 1002 0 0 SO 0 96.6 802
04:13:47 7 1003 0 0 NW 0 96.6 809
04:16:48 7 1002 0 0 NW 0 96.6 806
04:19:48 6 1002 0 0 NW 0 96.6 805
04:22:49 6 1002 0 0 NW 0 96.6 808
04:25:47 6 1002 0 0 NW 0 96.6 814
04:28:50 6 1002 3 0 SO 0 96.6 804
04:31:48 6 1002 4 0 SO 0 96.6 803
04:34:46 6 1002 6 0 SO 0 96.6 803
04:37:48 6 1002 8 0 SW 0 96.6 812
04:40:46 6 1002 12 0 O 0 96.6 813
04:43:46 6 1002 15 1 SO 0 96.6 817
04:46:50 6 1002 20 0 S 0 96.6 820
04:49:46 6 1002 25 0 S 0 96.6 815
04:52:48 6 1002 31 0 S 0 96.6 826
04:55:48 7 1002 35 0 S 0 96.6 822
04:58:48 7 1002 42 0 W 0 96.6 822
05:01:51 7 1002 48 0 SW 0 96.6 823
05:04:48 7 1002 51 2 NW 0 96.6 824
05:07:48 7 1002 61 0 NO 0 96.6 829
05:10:47 7 1002 71 0 S 0 96.6 826
05:13:48 7 1002 74 0 SO 0 96.6 821
05:16:49 7 1002 79 1 NW 0 96.6 824
05:19:47 7 1002 94 1 NW 0 96.6 825
05:22:51 7 1003 102 0 SO 0 96.6 822
05:25:46 7 1002 104 0 S 0 96.6 823
05:28:49 7 1002 109 0 NW 0 96.6 822
05:31:49 7 1002 115 0 NW 0 96.6 815
05:34:47 7 1003 115 2 SO 0 96.6 811
05:37:46 7 1002 115 0 W 0 96.6 807
05:40:46 7 1002 121 1 W 0 96.6 811
05:43:47 8 1003 128 0 W 0 96.6 812
05:46:50 8 1002 131 0 SW 0 96.6 806
05:49:50 8 1002 137 0 NW 0 96.6 812
05:52:50 8 1003 143 0 NW 0 96.6 815
05:55:46 8 1002 144 0 O 0 96.6 821
05:58:50 8 1003 150 0 NW 0 96.6 821
06:01:48 8 1002 152 0 N 0 96.6 818
06:04:49 8 1002 156 0 SW 0 96.6 816
06:07:48 8 1003 162 0 NW 0 96.6 814
06:10:50 8 1003 168 0 NW 0 96.6 820
06:13:49 8 1003 171 0 NW 0 96.6 820
06:16:48 8 1003 174 0 NW 0 96.6 815
06:19:48 8 1003 177 0 SO 0 96.6 817
06:22:48 8 1002 178 1 S 0 96.6 818
06:25:49 8 1003 181 0 NW 0 96.6 823
06:28:48 8 1002 182 0 S 0 96.6 814
06:31:47 8 1003 183 0 S 0 96.6 815
06:34:49 8 1003 185 1 SW 0 96.6 820
06:37:49 8 1003 186 0 SO 0 96.6 821
06:40:50 8 1003 184 0 SO 0 96.6 818
06:43:47 8 1003 184 2 W 0 96.6 823
06:46:47 8 1003 184 0 W 0 96.6 820
06:49:51 8 1004 184 4 NO 0 96.6 822
06:52:48 8 1004 188 0 W 0 96.6 820
06:55:48 8 1004 188 0 SO 0 96.6 823
06:58:48 9 1004 188 0 SW 0 96.6 819
07:01:47 9 1003 190 0 O 0 96.6 820
07:04:48 9 1004 192 0 SO 0 96.6 817
07:07:49 9 1004 195 0 S 0 96.6 820
07:10:48 9 1004 199 0 O 0 96.6 820
07:13:48 9 1004 198 1 SO 0 96.6 814
07:16:48 9 1003 197 0 O 0 96.6 803
07:19:50 9 1004 198 5 SO 0 96.6 796
07:22:48 10 1003 197 0 W 0 96.6 811
07:25:49 10 1004 196 0 W 0 96.6 828
07:28:49 10 1004 196 0 S 0 96.6 837
07:31:50 10 1003 197 1 N 0 96.6 829
07:34:50 10 1003 199 0 SW 0 96.6 829
07:37:47 10 1004 197 1 W 0 96.6 821
07:40:49 10 1004 201 0 S 0 96.6 824
07:43:49 10 1005 203 0 NW 0 96.6 826
07:46:49 11 1004 203 3 SW 0 96.6 838
07:49:50 11 1005 206 0 SW 0 96.6 840
07:52:47 11 1004 201 0 S 0 96.6 842
07:55:49 11 1004 202 0 NW 0 96.6 839
07:58:48 11 1005 205 1 S 0 96.6 823
08:01:48 11 1005 206 0 NW 0 96.6 813
08:04:50 11 1005 205 1 SW 0 96.6 813
08:07:49 11 1005 209 0 S 0 96.6 809
08:10:47 11 1005 210 2 W 0 96.6 811
08:13:50 11 1005 211 0 NW 0 96.6 815
08:16:50 11 1004 210 2 SW 0 96.6 811
08:19:49 12 1005 211 0 NW 0 96.6 813
08:22:50 12 1004 209 0 O 0 96.6 805
08:25:49 12 1005 213 0 NO 0 96.6 805
08:28:50 12 1005 213 0 NW 0 96.5 799
08:31:49 12 1006 214 0 SO 0 95.8 797
08:34:49 12 1005 215 0 NW 0 95.6 796
08:37:50 13 1006 211 0 NW 0 95.7 798
08:40:51 13 1005 206 0 NW 0 95.4 787
08:43:49 13 1005 209 0 S 0 95 782
08:46:48 13 1005 217 0 S 0 94.7 782
08:49:47 13 1004 213 0 S 0 94.4 782
08:52:50 13 1005 208 2 W 0 93.2 782
08:55:48 13 1005 211 3 SW 0 93 776
08:58:49 13 1005 205 0 SO 0 93 770
09:01:50 13 1005 211 0 W 0 92.9 768
09:04:47 13 1005 213 1 SW 0 92.8 767
09:07:49 14 1005 216 1 S 0 93.1 768
09:10:51 14 1006 220 0 SW 0 92.9 771
09:13:50 14 1005 216 1 SW 0 92.2 770
09:16:49 14 1005 213 2 NW 0 91.4 765
09:19:50 14 1005 219 0 NW 0 89.9 762
09:22:47 14 1005 210 4 W 0 90.1 755
09:25:48 14 1005 209 2 W 0 89.4 747
09:28:49 14 1005 214 0 O 0 90 744
09:31:48 14 1005 217 0 SO 0 90.5 749
09:34:50 14 1006 220 6 NW 0 90.3 750
09:37:47 14 1005 201 1 S 0 89.8 749
09:40:49 14 1005 194 2 W 0 88.2 747
09:43:48 14 1005 201 0 W 0 87.9 744
09:46:47 13 1005 212 0 S 0 88.1 738
09:49:49 14 1006 219 0 SO 0 89.3 726
09:52:50 14 1005 216 2 SW 0 89.7 731
09:55:52 14 1005 220 2 SO 0 88.9 741
09:58:49 14 1005 215 1 NW 0 87 738
10:01:48 14 1005 213 2 W 0 86.2 732
10:04:49 14 1005 216 2 SW 0 86.3 728
10:07:48 14 1005 204 1 SO 0 86.4 723
10:10:47 14 1005 206 0 S 0 86.7 721
10:13:51 14 1006 223 2 W 0 87.5 721
10:16:49 15 1004 219 1 SW 0 87.2 723
10:19:48 15 1005 214 2 NW 0 86.4 724
10:22:51 15 1005 201 7 SW 0 85 726
10:25:47 14 1005 198 1 NO 0 84.1 725
10:28:46 14 1006 211 0 S 0 84.1 724
10:31:51 14 1006 215 2 S 0 85.1 714
10:34:46 14 1005 217 1 S 0 86.1 713
10:37:48 14 1005 214 1 NW 0 86.5 710
10:40:50 15 1005 197 2 NW 0 82.4 714
10:43:48 15 1006 209 0 S 0 81.7 715
10:46:45 15 1006 215 4 0 81.7 718
10:49:49 15 1006 214 3 NW 0 81.3 706
10:52:48 16 1005 210 0 S 0 81.6 706
10:55:49 16 1006 207 2 S 0 81.1 700
10:58:49 16 1005 209 0 SO 0 82.1 700
11:01:50 16 1006 215 2 SW 0 77.9 703
11:04:49 16 1006 217 2 W 0 77.8 699
11:07:48 16 1006 219 2 SO 0 77.9 709
11:10:49 16 1006 214 1 SW 0 77.7 703
11:13:47 16 1005 222 7 S 0 74.2 696
11:16:48 17 1006 224 0 SO 0 75.2 682
11:19:50 17 1006 220 0 SO 0 75.9 680
11:22:49 17 1005 216 3 SW 0 74.8 685
11:25:47 17 1006 211 1 S 0 74.6 688
11:28:48 17 1006 209 1 O 0 74.6 688
11:31:48 17 1006 209 3 W 0 74.3 687
11:34:48 17 1006 211 0 N 0 70.4 688
11:37:47 17 1006 216 2 O 0 69.9 680
11:40:48 17 1006 224 3 NO 0 69.2 676
11:43:49 18 1006 223 3 NW 0 68.2 674
11:46:49 18 1006 223 2 SW 0 68.5 677
11:49:48 17 1006 216 3 NW 0 67 677
11:52:49 17 1006 213 0 NW 0 68.5 676
11:55:48 18 1006 213 1 W 0 65.3 677
11:58:51 18 1006 222 1 N 0 66.3 674
12:01:52 19 1006 227 1 SW 0 65.4 677
12:04:50 19 1006 224 2 SW 0 65.3 679
12:07:49 19 1006 224 3 NW 0 62.1 679
12:10:51 18 1006 223 5 NW 0 62 674
12:13:50 18 1006 218 2 NW 0 63.7 664
12:16:48 17 1006 222 2 NW 0 65.7 662
12:19:47 18 1006 229 5 N 0 65.4 665
12:22:50 19 1006 224 0 W 0 65.5 668
12:25:49 19 1006 218 6 W 0 65 668
12:28:48 19 1006 217 3 W 0 63.6 662
12:31:49 18 1006 217 2 W 0 62.2 656
12:34:50 18 1006 219 1 NW 0 62.6 656
12:37:47 17 1006 225 0 W 0 64.7 653
12:40:49 18 1006 223 3 NW 0 65.5 654
12:43:50 18 1006 219 3 NW 0 62.6 659
12:46:50 18 1006 220 2 S 0 64.9 652
12:49:49 19 1006 220 1 S 0 65.4 653
12:52:47 20 1006 223 1 SW 0 61.8 647
12:55:48 21 1006 229 1 W 0 60 648
12:58:47 21 1006 222 5 S 0 56 650
13:01:50 21 1006 220 3 SW 0 54.3 644
13:04:47 20 1006 222 3 S 0 57.1 638
13:07:48 21 1006 223 1 N 0 60.1 646
13:10:49 22 1006 227 6 S 0 52.5 653
13:13:48 23 1006 231 2 N 0 52.7 647
13:16:50 23 1006 221 7 SO 0 50.1 641
13:19:47 22 1006 219 2 S 0 50.2 639
13:22:49 21 1006 221 1 SO 0 53.1 641
13:25:47 20 1006 227 2 SO 0 53.7 638
13:28:50 19 1006 228 1 W 0 57.2 638
13:31:46 19 1006 224 4 W 0 58 635
13:34:50 20 1006 230 0 SW 0 58.5 641
13:37:50 21 1006 231 1 SW 0 57.3 639
13:40:48 22 1006 227 2 W 0 53 635
13:43:48 21 1006 228 1 SO 0 52.7 635
13:46:47 21 1006 230 2 W 0 53.1 638
13:49:48 21 1005 234 2 S 0 56.2 641
13:52:32 20 1006 232 3 SW 0 45.7 632
13:55:50 23 1006 230 3 SO 0 52.7 630
13:58:49 23 1006 233 4 NO 0 52.3 624
14:01:48 23 1006 237 2 W 0 49.2 625
14:04:51 24 1006 231 1 S 0 48.2 626
14:07:48 23 1006 228 1 W 0 47.9 633
14:10:49 22 1006 235 3 0 50.2 627
14:13:46 23 1006 238 4 W 0 50.8 632
14:16:46 23 1006 240 4 S 0 51.6 615
14:19:52 24 1006 232 1 SW 0 44.9 620
14:22:50 23 1006 231 4 W 0 45.3 622
14:25:48 23 1006 231 1 W 0 46.5 626
14:28:49 22 1006 233 2 NW 0 47.9 624
14:31:49 22 1006 242 1 SW 0 51.3 615
14:34:49 23 1006 232 3 S 0 45.9 618
14:37:48 23 1006 228 0 NO 0 46 615
14:40:50 23 1006 242 0 NO 0 49.2 621
14:43:47 23 1006 243 1 W 0 49.6 618
14:46:48 23 1006 232 0 S 0 49.7 613
14:49:47 23 1006 235 1 S 0 47.8 606
14:52:50 22 1006 238 2 NW 0 48.4 615
14:55:50 23 1006 243 0 NW 0 50.3 618
14:58:32 22 1006 244 2 W 0 40 615
15:01:50 24 1006 244 5 SW 0 45.1 626
15:04:49 24 1006 238 3 NW 0 45.2 621
15:07:50 23 1006 229 5 NW 0 45.2 618
15:10:50 22 1006 227 8 W 0 45.8 610
15:13:49 20 1006 227 2 NW 0 47.7 607
15:16:49 20 1006 225 3 NW 0 50.7 606
15:19:49 20 1006 227 0 NW 0 51.9 600
15:22:50 20 1006 232 0 O 0 51.8 604
15:25:50 20 1006 234 0 SO 0 52.3 603
15:28:50 21 1006 237 0 SO 0 52.4 607
15:31:48 22 1006 246 2 SW 0 50.7 595
15:34:49 23 1006 239 2 W 0 49.1 603
15:37:49 23 1006 231 7 SO 0 44.3 601
15:40:49 23 1006 234 2 W 0 45.8 606
15:43:48 22 1006 230 3 O 0 45.9 607
15:46:50 21 1006 232 3 W 0 46.2 601
15:49:48 21 1006 234 2 S 0 46.5 595
15:52:48 21 1006 235 0 S 0 46.3 594
15:55:49 21 1006 233 0 SO 0 48.8 597
15:58:47 21 1005 234 4 NW 0 50.8 599
16:01:52 21 1006 247 0 W 0 52 600
16:04:48 22 1006 227 2 S 0 51.8 597
16:07:48 22 1005 234 4 W 0 50.3 591
16:10:50 21 1005 241 3 NW 0 49.4 589
16:13:49 21 1006 234 1 NW 0 50.7 588
16:16:48 21 1005 231 4 SW 0 50.9 589
16:19:49 21 1006 243 2 SW 0 51.5 590
16:22:50 21 1006 238 0 NW 0 52.1 583
16:25:49 21 1006 247 0 NW 0 51.1 571
16:28:51 22 1006 247 4 S 0 49.7 572
16:31:47 22 1006 237 0 S 0 48.6 574
16:34:46 22 1006 233 3 W 0 46.4 580
16:37:49 22 1006 232 0 SO 0 45.4 579
16:40:50 21 1006 233 1 SW 0 47.6 579
16:43:49 20 1006 231 3 N 0 46.9 574
16:46:49 19 1006 234 2 NW 0 50.3 574
16:49:47 19 1006 234 1 N 0 52.5 578
16:52:49 18 1006 236 1 N 0 52.9 578
16:55:49 19 1006 225 8 W 0 51.9 582
16:58:47 20 1006 204 0 S 0 52.2 579
17:01:50 20 1006 209 0 NO 0 51.6 580
17:04:48 20 1006 210 1 NW 0 52 574
17:07:52 19 1006 234 0 NW 0 52.2 557
17:10:48 19 1006 230 1 NO 0 54.2 537
17:13:50 19 1006 223 0 NO 0 55.1 530
17:16:47 19 1006 224 3 S 0 52.5 525
17:19:49 19 1006 229 1 NO 0 52.1 544
17:22:48 19 1006 237 0 O 0 52.1 552
17:25:49 19 1006 246 7 NW 0 53.5 558
17:28:48 20 1006 247 2 W 0 49.7 578
17:31:47 22 1006 247 2 N 0 47.2 586
17:34:47 21 1006 247 3 S 0 45.1 592
17:37:48 24 1006 247 2 O 0 41.3 594
17:40:48 25 1006 247 2 SW 0 41.8 598
17:43:31 21 1006 247 0 NW 0 40 604
17:46:49 24 1006 247 1 SW 0 39.5 612
17:49:47 27 1006 247 1 S 0 37.2 618
17:52:49 28 1005 247 2 SW 0 38.4 618
17:55:51 28 1006 247 0 NW 0 38.2 630
17:58:49 27 1006 247 5 NW 0 31 635
18:01:50 27 1006 247 3 N 0 34.5 643
18:04:48 26 1006 247 0 SW 0 35.1 653
18:07:50 26 1006 247 0 O 0 36.3 660
18:10:47 27 1006 247 0 S 0 36.8 658
18:13:50 26 1006 234 3 SW 0 34 660
18:16:32 25 1006 247 0 S 0 40 668
18:19:52 25 1006 247 0 SW 0 39.8 679
18:22:48 26 1006 247 1 W 0 39.9 679
18:25:48 26 1006 247 0 N 0 38.3 686
18:28:48 26 1006 236 1 NW 0 37.4 696
18:31:46 24 1006 227 0 S 0 36.9 702
18:34:48 22 1006 226 1 S 0 39.6 710
18:37:48 22 1006 246 0 SW 0 41.6 720
18:40:48 23 1005 240 0 S 0 42.6 730
18:43:48 24 1006 247 0 N 0 41.1 736
18:46:50 23 1006 244 5 NW 0 40 739
18:49:47 21 1006 234 5 0 41.2 738
18:52:48 20 1006 245 4 N 0 42.8 727
18:55:47 19 1006 222 5 N 0 47.3 726
18:58:48 18 1006 220 4 N 0 49.8 724
19:01:48 17 1006 220 4 NO 0 50.8 732
19:04:50 17 1006 221 0 NO 0 52.2 739
19:07:49 17 1005 220 0 NO 0 53.6 738
19:10:48 17 1006 225 1 NW 0 54.1 739
19:13:47 17 1006 216 3 NO 0 54.7 736
19:16:48 17 1006 214 2 N 0 55.1 730
19:19:48 17 1006 212 1 NW 0 55.2 723
19:22:48 17 1005 226 0 NO 0 55.9 715
19:25:49 17 1005 212 2 N 0 56.3 715
19:28:49 16 1006 209 1 NW 0 56 714
19:31:50 17 1006 214 1 NO 0 55.8 718
19:34:48 17 1005 210 1 NW 0 55.9 708
19:37:49 16 1006 205 6 W 0 55.8 711
19:40:49 16 1006 202 2 NW 0 55.2 705
19:43:48 16 1006 198 0 NW 0 55.4 703
19:46:48 16 1006 196 0 SO 0 56 703
19:49:48 16 1005 197 0 SW 0 56.8 707
19:52:49 16 1006 197 1 NW 0 56.4 714
19:55:47 16 1006 196 1 N 0 56 712
19:58:49 16 1006 196 0 O 0 56.3 704
20:01:47 16 1005 196 0 O 0 57 701
20:04:49 16 1005 194 0 O 0 57.5 698
20:07:47 16 1006 191 0 O 0 57.7 702
20:10:48 16 1006 189 0 O 0 58.7 697
20:13:49 15 1005 190 0 O 0 59.4 702
20:16:48 15 1006 189 0 S 0 59.8 696
20:19:49 15 1006 185 0 S 0 60 694
20:22:47 15 1006 182 0 S 0 60.7 694
20:25:48 15 1005 179 0 S 0 61.1 688
20:28:46 15 1006 177 0 S 0 61.9 693
20:31:47 15 1006 172 0 S 0 62.6 691
20:34:48 15 1006 170 0 S 0 62.9 691
20:37:47 14 1006 168 0 S 0 63.3 694
20:40:50 14 1006 168 0 S 0 63.9 692
20:43:48 14 1005 166 0 S 0 64.4 694
20:46:48 14 1006 163 0 S 0 65 688
20:49:48 14 1006 159 0 S 0 65.3 686
20:52:47 14 1006 156 0 S 0 65.7 682
20:55:47 14 1005 152 0 S 0 66 682
20:58:48 14 1006 147 0 S 0 66.4 683
21:01:50 13 1006 142 0 S 0 66.6 682
21:04:46 13 1006 137 0 S 0 67.2 676
21:07:50 13 1006 131 0 S 0 67.8 673
21:10:49 13 1006 124 0 NO 0 68.4 677
21:13:47 13 1006 117 0 NO 0 69.6 674
21:16:47 13 1006 110 0 NO 0 70.8 679
21:19:49 13 1006 102 0 NO 0 71.1 673
21:22:48 13 1006 93 0 NO 0 72.7 673
21:25:48 13 1006 84 0 NO 0 73.7 662
21:28:47 12 1006 74 0 S 0 74.4 660
21:31:48 12 1006 65 0 S 0 74.3 656
21:34:48 12 1006 56 0 S 0 74.4 653
21:37:47 12 1006 46 0 S 0 74.5 655
21:40:48 12 1006 38 0 S 0 74.9 656
21:43:45 12 1006 31 0 S 0 75.3 659
21:46:48 12 1006 25 0 O 0 75.7 660
21:49:48 11 1006 19 0 O 0 76.5 659
21:52:49 11 1006 14 0 O 0 76.7 651
21:55:46 11 1006 10 0 O 0 77.4 642
21:58:47 11 1006 7 0 NO 0 80.6 644
22:01:47 11 1006 5 0 NO 0 82.1 651
22:04:47 11 1006 4 0 NO 0 82.4 648
22:07:51 11 1006 0 0 NO 0 82.9 652
22:10:50 11 1006 0 0 NO 0 82.5 647
22:13:47 11 1006 0 0 NO 0 82.3 651
22:16:47 11 1006 0 0 NO 0 82.4 647
22:19:49 11 1006 0 0 NO 0 83 641
22:22:48 11 1006 0 0 NO 0 83.7 636
22:25:51 10 1006 0 0 NO 0 84 639
22:28:47 10 1006 0 0 NO 0 84.6 647
22:31:48 10 1006 0 0 NO 0 85.4 645
22:34:48 10 1006 0 0 NO 0 85.6 627
22:37:47 10 1006 0 0 NO 0 85.8 607
22:40:47 10 1006 0 0 NO 0 86 600
22:43:48 10 1006 0 0 NO 0 86.6 601
22:46:49 10 1006 0 0 NO 0 87.6 594
22:49:47 10 1006 0 0 NO 0 87.9 589
22:52:48 10 1006 0 0 NO 0 88 584
22:55:47 10 1006 0 0 NO 0 88.5 582
22:58:47 10 1006 0 0 NO 0 88.5 574
23:01:46 9 1006 0 0 NO 0 88.7 574
23:04:49 9 1006 0 0 SO 0 88.9 586
23:07:48 9 1006 0 0 SO 0 88.9 592
23:10:49 9 1006 0 0 SO 0 88.9 589
23:13:48 9 1006 0 0 SO 0 88.9 583
23:16:49 9 1006 0 0 SO 0 89.2 585
23:19:46 9 1006 0 0 N 0 89.6 583
23:22:47 9 1006 0 0 O 0 90.4 572
23:25:47 9 1006 0 0 O 0 90.1 578
23:28:48 9 1006 0 0 N 0 90.2 582
23:31:47 9 1006 0 0 NW 0 90.4 595
23:34:48 9 1006 0 0 N 0 91.2 588
23:37:47 9 1006 0 0 N 0 91.6 591
23:40:48 9 1006 0 0 N 0 91.5 589
23:43:46 8 1006 0 0 S 0 91.3 589
23:46:48 8 1006 0 0 S 0 91.4 589
23:49:45 8 1006 0 1 N 0 91.7 584
23:52:47 8 1006 0 0 N 0 92.3 577
23:55:48 8 1006 0 0 N 0 92.7 584
23:58:48 8 1006 0 0 N 0 92.6 586

Letzte Änderung : 04-Jan-2022
Copyright Jens Köhler, Wolfsburg, Obere Dorfstraße 10d